Flag for Germany Weather past 2 weeks in Lage, North Rhine-Westphalia, Germany

Now
47 °F

Low clouds.


Feels Like: 47 °F
Forecast: 46 / 60 °F
Wind: 1 mph from West

Location: Bad Lippspringe

Current Time: Sep 23, 2014 at 6:29:05 AM

Latest Report: Sep 23, 2014 at 6:00 AM


Visibility: 6 mi

Pressure: 30.15 "Hg

Humidity: 90%

Dew point: 45 °F

Location of LageLocation

Historic Weather in Lage — Graph

°F

Lage temperature yesterday

Maximum temperature yesterday: 56 °F (at 6:00 PM)
Minimum temperature yesterday: 48 °F (at 1:00 PM)
Average temperature yesterday: 52 °F

Past Weeks' High & Low Weather Summary

 TemperatureHumidityPressure
High75 °F (Sep 17, 3:00 PM)99% (Sep 8, 5:00 AM)30.23 "Hg (Sep 8, 5:00 AM)
Low44 °F (Sep 12, 5:00 AM)55% (Sep 14, 3:00 PM)29.85 "Hg (Sep 19, 6:00 AM)
Average60 °F83%30.04 "Hg
* Reported Sep 8 5:00 AM — Sep 23 5:00 AM, Lage, Weather by CustomWeather, © 2014

Note: Actual official high and low records may vary slightly from our data, if they occured in-between our weather recording intervals... More about our weather records

Advertising

Lage weather history for previous 24 hours

 ConditionsComfort  
Time TempWeatherWind HumidityBarometerVisibility
5:00 AM
Sep 23
48 °FOvercast.1 mph92%30.15 "Hg6 mi
4:00 AM48 °FOvercast.1 mph90%30.14 "Hg6 mi
3:00 AM49 °FOvercast.1 mph88%30.15 "Hg7 mi
2:00 AM50 °FOvercast.1 mph86%30.15 "Hg9 mi
1:00 AM50 °FOvercast.1 mph85%30.15 "Hg9 mi
12:00 AM49 °FOvercast.1 mph88%30.14 "Hg8 mi
11:00 PM
Sep 22
49 °FOvercast.2 mph87%30.14 "Hg9 mi
10:00 PM49 °FOvercast.1 mph87%30.12 "Hg10 mi
9:00 PM51 °FOvercast.2 mph73%30.11 "Hg14 mi
8:00 PM52 °FPassing clouds.2 mph72%30.09 "Hg14 mi
7:00 PM55 °FPassing clouds.3 mph68%30.06 "Hg12 mi
6:00 PM56 °FOvercast.3 mph65%30.05 "Hg15 mi
5:00 PM56 °FPartly sunny.3 mph61%30.04 "Hg17 mi
4:00 PM56 °FOvercast.6 mph69%30.04 "Hg13 mi
3:00 PM53 °FOvercast.6 mph77%30.04 "Hg14 mi
2:00 PM52 °FScattered clouds.2 mph81%30.04 "Hg17 mi
1:00 PM48 °FPartly sunny.2 mph83%30.02 "Hg14 mi
12:00 PM52 °FRain. Overcast.7 mph81%30.00 "Hg1 mi
11:00 AM54 °FPartly sunny.8 mph78%29.99 "Hg5 mi
10:00 AM53 °FOvercast.7 mph81%30.01 "Hg4 mi
9:00 AM52 °FOvercast.6 mph88%30.01 "Hg4 mi
8:00 AM51 °FOvercast.5 mph91%30.03 "Hg3 mi
7:00 AM51 °FFog.5 mph93%30.03 "Hg3 mi
6:00 AM51 °FLow clouds.3 mph94%30.02 "Hg3 mi
Weather by CustomWeather, © 2014

See weather overviewHow to use our weather pages